This demonstration page uses our WeatherBlox Daily Observations layout. Learn more.

Left ArrowRight Arrow

39.51506, -84.39828

Hourly Observations for October 5, 2018

Temp ( °F °C ) Dew Point ( °F °C ) Humidity (%) Winds ( mph kmh ) Pressure ( in mb ) Visibility ( mi km ) Precip ( " mm )
12:15 am 00:15 Cloudy 65 18.6 61 15.9 84 84 NE 12 19 30.12 1020 10 16.0934 0 0
12:35 am 00:35 Cloudy 65 18.4 60 15.4 83 83 ENE 10 17 30.12 1020 10 16.0934 0 0
12:55 am 00:55 Cloudy 64 18 59 15 83 83 NE 12 19 30.12 1020 10 16.0934 0 0
1:15 am 01:15 Cloudy 64 17.7 58 14.7 83 83 NE 10 17 30.12 1020 10 16.0934 0 0
1:35 am 01:35 Cloudy 63 17.3 58 14.4 83 83 NNE 9 15 30.12 1020 10 16.0934 0 0
1:55 am 01:55 Cloudy 63 17.2 58 14.6 85 85 NE 10 17 30.12 1020 10 16.0934 0 0
2:15 am 02:15 Cloudy 62 16.7 57 14 84 84 NE 10 17 30.09 1019 10 16.0934 0 0
2:35 am 02:35 Cloudy 62 16.7 58 14.2 85 85 ENE 6 9 30.12 1020 10 16.0934 0 0
2:55 am 02:55 Cloudy 62 16.8 58 14.3 85 85 NE 8 13 30.12 1020 10 16.0934 0 0
3:15 am 03:15 Cloudy 62 16.8 58 14.2 85 85 NE 7 11 30.09 1019 10 16.0934 0 0
3:35 am 03:35 Cloudy 62 16.7 57 14.1 85 85 NE 9 15 30.09 1019 10 16.0934 0 0
3:55 am 03:55 Cloudy 62 16.6 57 13.9 84 84 ENE 8 13 30.09 1019 10 16.0934 0 0
4:15 am 04:15 Cloudy 62 16.6 57 13.9 84 84 E 6 9 30.09 1019 10 16.0934 0 0
4:35 am 04:35 Cloudy 62 16.6 56 13.6 83 83 E 7 11 30.09 1019 10 16.0934 0 0
4:55 am 04:55 Cloudy 61 16.3 56 13.4 83 83 ENE 12 19 30.12 1020 10 16.0934 0 0
5:15 am 05:15 Cloudy 61 15.9 55 12.9 83 83 ENE 9 15 30.12 1020 10 16.0934 0 0
5:35 am 05:35 Cloudy 59 15.2 54 12.3 83 83 ENE 9 15 30.12 1020 10 16.0934 0 0
5:55 am 05:55 Cloudy 59 14.8 53 11.8 82 82 ENE 9 15 30.12 1020 10 16.0934 0 0
6:15 am 06:15 Cloudy 58 14.6 53 11.8 83 83 ENE 7 11 30.12 1020 10 16.0934 0 0
6:35 am 06:35 Cloudy 58 14.6 53 11.6 82 82 E 10 17 30.12 1020 10 16.0934 0 0
6:55 am 06:55 Cloudy 58 14.4 53 11.5 83 83 ENE 8 13 30.12 1020 10 16.0934 0 0
7:15 am 07:15 Cloudy 58 14.3 53 11.5 83 83 ENE 7 11 30.12 1020 10 16.0934 0 0
7:35 am 07:35 Cloudy 58 14.3 53 11.4 83 83 ENE 7 11 30.12 1020 10 16.0934 0 0
7:55 am 07:55 Cloudy 58 14.3 52 11.3 82 82 E 7 11 30.12 1020 10 16.0934 0 0
8:15 am 08:15 Cloudy 58 14.4 53 11.4 82 82 ENE 7 11 30.12 1020 10 16.0934 0 0
8:35 am 08:35 Cloudy 58 14.5 53 11.5 82 82 E 5 7 30.12 1020 10 16.0934 0 0
8:55 am 08:55 Cloudy 59 14.8 53 11.7 82 82 ESE 5 7 30.12 1020 10 16.0934 0 0
9:15 am 09:15 Cloudy 59 15.2 54 12 81 81 E 6 9 30.12 1020 10 16.0934 0 0
9:35 am 09:35 Cloudy 60 15.6 54 12.4 81 81 ESE 5 7 30.12 1020 10 16.0934 0 0
9:55 am 09:55 Cloudy 61 16.2 55 13 81 81 SE 6 9 30.12 1020 10 16.0934 0 0
10:15 am 10:15 Cloudy 62 16.7 57 13.8 83 83 SSE 6 9 30.09 1019 10 16.0934 0 0
10:35 am 10:35 Cloudy 63 17.1 58 14.2 83 83 SE 6 9 30.09 1019 10 16.0934 0 0
10:55 am 10:55 Cloudy 64 17.8 59 14.8 83 83 SSE 3 6 30.06 1018 10 16.0934 0 0
11:15 am 11:15 Cloudy 65 18.3 60 15.5 84 84 S 6 9 30.06 1018 10 16.0934 0 0
11:35 am 11:35 Cloudy 67 19.2 61 16.2 83 83 S 6 9 30.06 1018 10 16.0934 0 0
11:55 am 11:55 Cloudy 68 20.2 62 16.7 80 80 SSE 5 7 30.06 1018 10 16.0934 0 0
12:15 pm 12:15 Cloudy 70 21.1 64 17.8 82 82 S 7 11 30.06 1018 10 16.0934 0 0
12:35 pm 12:35 Cloudy 71 21.6 65 18.3 82 82 SSW 6 9 30.06 1018 10 16.0934 0 0
12:55 pm 12:55 Mostly Cloudy 73 22.8 67 19.2 80 80 SSW 6 9 30.06 1018 10 16.0934 0 0
1:15 pm 13:15 Mostly Cloudy 74 23.6 67 19.7 79 79 S 8 13 30.03 1017 10 16.0934 0 0
1:35 pm 13:35 Sunny 76 24.4 68 20.2 78 78 SSW 8 13 30.03 1017 7 11.26538 0 0
1:55 pm 13:55 Sunny 77 25.1 69 20.6 76 76 SSW 8 13 30.03 1017 10 16.0934 0 0
2:15 pm 14:15 Partly Cloudy 79 25.9 69 20.6 73 73 SW 6 9 30 1016 10 16.0934 0 0
2:35 pm 14:35 Sunny 80 26.5 70 21 72 72 SSE 3 6 30 1016 10 16.0934 0 0
2:55 pm 14:55 Partly Cloudy 81 27 71 21.7 73 73 S 7 11 30 1016 10 16.0934 0 0
3:15 pm 15:15 Sunny 81 27.4 71 21.7 71 71 S 3 6 30 1016 10 16.0934 0 0
3:35 pm 15:35 Sunny 83 28.1 71 21.8 69 69 S 7 11 30 1016 10 16.0934 0 0
3:55 pm 15:55 Sunny 83 28.1 71 21.4 67 67 S 3 6 29.94 1014 10 16.0934 0 0
4:15 pm 16:15 Cloudy with Thunderstorms 81 27.3 69 20.7 67 67 NNW 23 37 30.03 1017 10 16.0934 0 0
4:35 pm 16:35 Cloudy with Heavy Thunderstorms 70 21.2 68 19.9 92 92 N 12 19 30 1016 1 1.60934 0.5 12.7
4:55 pm 16:55 Mostly Cloudy with Thunderstorms 71 21.7 69 20.8 95 95 SE 5 7 30 1016 5 8.0467 0.59 14.986
5:15 pm 17:15 Sunny with Light Rain 74 23.6 71 21.7 89 89 Calm 29.97 1015 5 8.0467 0 0
5:35 pm 17:35 Partly Cloudy with Mist and Fog 75 23.7 71 21.7 89 89 Calm 29.97 1015 4 6.43736 0 0
5:55 pm 17:55 Sunny with Mist and Fog 74 23.6 71 21.7 89 89 WSW 5 7 29.97 1015 5 8.0467 0 0
6:15 pm 18:15 Sunny 73 22.7 70 21.2 91 91 WSW 6 9 30 1016 10 16.0934 0 0
6:35 pm 18:35 Sunny 73 22.5 71 21.4 94 94 SSW 3 6 29.97 1015 10 16.0934 0 0
6:55 pm 18:55 Partly Cloudy 73 22.5 71 21.6 95 95 SW 3 6 30 1016 10 16.0934 0 0
7:15 pm 19:15 Clear 72 22.4 71 21.6 95 95 SW 3 6 30 1016 10 16.0934 0 0
7:35 pm 19:35 Clear 72 22.1 71 21.5 96 96 WSW 3 6 30 1016 7 11.26538 0 0
7:55 pm 19:55 Clear 71 21.7 70 21.2 97 97 Calm 30 1016 7 11.26538 0 0
8:15 pm 20:15 Clear with Mist and Fog 70 21 69 20.7 98 98 Calm 30 1016 5 8.0467 0 0
8:35 pm 20:35 Mostly Cloudy with Mist and Fog 70 20.9 69 20.7 99 99 Calm 30 1016 1.5 2.41401 0 0
8:55 pm 20:55 Clear with Mist and Fog 70 20.9 69 20.7 99 99 Calm 30 1016 3 4.82802 0 0
9:15 pm 21:15 Mostly Cloudy with Fog 68 20.2 68 20 99 99 Calm 30.03 1017 0.5 0.80467 0 0
9:35 pm 21:35 Clear with Mist and Fog 68 19.8 67 19.6 99 99 Calm 30.03 1017 2 3.21868 0 0
9:55 pm 21:55 Mostly Cloudy with Fog 68 19.8 67 19.7 99 99 Calm 30 1016 0.5 0.80467 0 0
10:15 pm 22:15 Mostly Cloudy with Mist and Fog 67 19.4 67 19.3 99 99 Calm 30 1016 0.75 1.207005 0 0
10:35 pm 22:35 Mostly Cloudy with Fog 67 19.3 67 19.2 99 99 Calm 30 1016 0.25 0.402335 0 0
10:55 pm 22:55 Mostly Cloudy with Fog 66 18.7 65 18.6 99 99 Calm 30 1016 0.25 0.402335 0 0
11:15 pm 23:15 Mostly Cloudy with Mist and Fog 67 19.3 67 19.2 99 99 Calm 30 1016 0.75 1.207005 0 0
11:35 pm 23:35 Mostly Cloudy with Fog 66 19 66 18.9 99 99 Calm 30.03 1017 0.5 0.80467 0 0
11:55 pm 23:55 Mostly Cloudy with Fog 66 19 66 18.9 99 99 Calm 30.03 1017 0.5 0.80467 0 0

Powered by AerisWeather